Tracking 30009 objects as of 7-Dec-2024
HD Live streaming from Space Station
objects crossing your sky now

STARLINK-4362

Track STARLINK-4362 now!
10-day predictions
STARLINK-4362 is classified as:


NORAD ID: 53043
Int'l Code: 2022-077A
Perigee: 569.0 km
Apogee: 571.2 km
Inclination: 97.7 °
Period: 95.9 minutes
Semi major axis: 6941 km
RCS: Unknown
Launch date: July 11, 2022
Source: United States (US)
Launch site: AIR FORCE WESTERN TEST RANGE (AFWTR)
Your satellite tracking list
Your tracking list is empty




NASA's NSSDC Master Catalog

Two Line Element Set (TLE):
1 53043U 22077A   24341.74101745  .00000302  00000-0  28111-4 0  9998
2 53043  97.6542 160.1045 0001587 227.8067 132.3023 15.01260559132217
Source of the keplerian elements: AFSPC